Location: *
(46.4000°N, 12.6667°E)
Time: 18:01:13
(UTC+00:00)

Resurs 1-3 - Pass Details

Date: 09 April 2020
Orbit: 630 x 632 km, 97.9° (Epoch: 28 May)

Event Time Altitude Azimuth Distance (km) Brightness Sun altitude
Exits shadow 18:41:32 10° 136° (SE) 2,018 5.6 -9.4°
Reaches altitude 10° 18:41:34 10° 136° (SE) 2,010 5.6 -9.4°
Maximum altitude 18:45:35 37° 69° (ENE) 988 4.3 -10.0°
Drops below altitude 10° 18:49:38 10° 2° (N) 2,025 6.5 -10.7°
Sets 18:51:57 0° 354° (N) 2,938 7.5 -11.0°
